IISEREFA2 Weather Reports


Display with metric or nautical units.
time (UTC)temp
F
wind
direction
speed
MPH
gust
MPH
rain 1hr
in
rain 24hr
in
rain mn
in
humidity
%
barometer
mb
20260507063035 50 0 0.0 2.0 0.00 0.09 0.00 96 1013.9
20260507061537 49 0 0.0 2.0 0.00 0.09 0.00 97 1013.9
20260507060032 48 0 0.0 2.0 0.00 0.09 0.00 97 1014.1
20260507054533 47 196 0.0 2.0 0.00 0.13 0.00 97 1014.1
20260507053031 46 0 0.0 3.0 0.00 0.13 0.00 97 1013.9
20260507051532 45 0 0.0 1.0 0.00 0.13 0.00 97 1013.7
20260507050036 43 0 0.0 0.0 0.00 0.13 0.00 97 1013.7
20260507044531 43 0 0.0 1.0 0.00 0.22 0.00 96 1013.6
20260507043030 42 0 0.0 0.0 0.00 0.22 0.00 97 1013.4
20260507041530 42 0 0.0 0.0 0.00 0.22 0.00 96 1013.4
20260507040033 42 0 0.0 0.0 0.00 0.22 0.00 96 1013.5
20260507034540 42 0 0.0 0.0 0.00 0.37 0.00 96 1013.4
20260507033043 43 0 0.0 0.0 0.00 0.37 0.00 96 1013.3
20260507031545 43 0 0.0 0.0 0.00 0.37 0.00 96 1013.2
20260507030033 43 0 0.0 0.0 0.00 0.37 0.00 96 1013.2
20260507024534 44 0 0.0 0.0 0.00 0.46 0.00 96 1013.3
20260507023029 44 0 0.0 0.0 0.00 0.46 0.00 96 1013.2
20260507021533 45 0 0.0 0.0 0.00 0.46 0.00 96 1013.2
20260507020034 46 0 0.0 0.0 0.00 0.46 0.00 96 1013.0
20260507014700 46 0 0.0 0.0 0.00 0.51 0.00 96 1012.9
20260507014541 46 0 0.0 0.0 0.00 0.51 0.00 96 1012.9
20260507013038 47 0 0.0 0.0 0.00 0.51 0.00 96 1012.9
20260507011536 46 0 0.0 1.0 0.00 0.51 0.00 96 1013.0
20260507010040 45 0 0.0 0.0 0.00 0.51 0.00 96 1013.1
20260507004532 45 0 0.0 0.0 0.00 0.52 0.00 95 1013.2
20260507003031 45 0 0.0 0.0 0.00 0.52 0.00 95 1013.3
20260507001534 45 0 0.0 0.0 0.00 0.52 0.00 95 1013.2
20260507000030 47 0 0.0 0.0 0.00 0.52 0.00 95 1012.8
20260506234530 47 0 0.0 0.0 0.00 0.61 0.00 95 1012.9
20260506233030 48 0 0.0 0.0 0.00 0.61 0.00 95 1012.9
20260506231534 48 0 0.0 0.0 0.00 0.61 0.00 95 1012.9
20260506230032 48 0 0.0 0.0 0.00 0.61 0.00 95 1012.8
20260506224531 49 0 0.0 0.0 0.00 0.74 0.00 95 1012.7
20260506223032 49 0 0.0 2.0 0.00 0.74 0.00 95 1012.7
20260506221532 49 0 0.0 3.0 0.00 0.74 0.00 95 1012.8
20260506220032 49 0 0.0 1.0 0.00 0.74 0.00 95 1012.8
20260506214530 50 0 0.0 1.0 0.00 0.75 0.74 95 1012.7
20260506213032 49 196 0.0 2.0 0.00 0.75 0.74 95 1012.6
20260506211530 49 0 0.0 0.0 0.00 0.75 0.74 95 1012.5
20260506210034 50 0 0.0 0.0 0.00 0.75 0.74 95 1012.5
20260506204530 50 0 0.0 0.0 0.00 0.76 0.74 95 1012.5
20260506203038 50 0 0.0 3.0 0.00 0.76 0.74 94 1012.4
20260506201537 50 0 0.0 1.0 0.00 0.76 0.74 94 1012.0
20260506200035 50 0 0.0 0.0 0.00 0.76 0.74 93 1011.9
20260506194531 50 0 0.0 0.0 0.01 0.82 0.74 92 1011.7
20260506193030 51 0 0.0 1.0 0.01 0.82 0.74 92 1011.3
20260506191532 52 0 0.0 0.0 0.01 0.82 0.74 91 1011.3
20260506190037 53 0 0.0 0.0 0.01 0.82 0.74 91 1011.3
20260506184543 53 0 0.0 3.0 0.00 0.88 0.72 90 1011.2
20260506183032 54 0 0.0 2.0 0.00 0.88 0.72 89 1011.1
20260506181530 54 0 0.0 0.0 0.00 0.88 0.72 86 1010.8
20260506180030 55 0 0.0 0.0 0.00 0.88 0.72 83 1010.6
20260506174529 56 0 0.0 0.0 0.00 0.88 0.72 81 1010.5
20260506173040 57 0 0.0 2.0 0.00 0.88 0.72 75 1010.2
20260506171532 58 196 0.0 1.0 0.00 0.88 0.72 75 1010.0
20260506170036 57 0 0.0 2.0 0.00 0.88 0.72 77 1009.9
20260506164533 56 0 0.0 2.0 0.00 0.88 0.72 78 1009.9
20260506163036 56 0 0.0 0.0 0.00 0.88 0.72 78 1009.9
20260506161532 56 0 0.0 1.0 0.00 0.88 0.72 78 1010.0
20260506160032 56 0 0.0 4.0 0.00 0.88 0.72 75 1010.0
20260506154532 58 0 1.0 5.0 0.00 0.88 0.72 72 1010.1
20260506153030 58 198 2.0 6.0 0.00 0.88 0.72 73 1010.1
20260506151531 59 0 1.0 5.0 0.00 0.88 0.72 76 1010.3
20260506150030 58 206 2.0 6.0 0.00 0.88 0.72 79 1010.4
20260506144534 56 214 0.0 3.0 0.00 0.88 0.72 83 1010.5
20260506143033 55 215 1.0 4.0 0.00 0.88 0.72 82 1010.9
20260506141533 55 0 0.0 3.0 0.00 0.88 0.72 84 1011.1
20260506140032 54 215 0.0 3.0 0.00 0.88 0.72 84 1011.2
20260506134532 54 215 0.0 3.0 0.00 0.88 0.72 86 1011.1
20260506133032 54 0 0.0 3.0 0.02 0.88 0.72 86 1011.2
20260506131544 54 215 0.0 3.0 0.02 0.88 0.72 84 1011.3
20260506130037 53 0 0.0 0.0 0.02 0.88 0.72 86 1011.5
20260506124529 54 0 0.0 2.0 0.01 0.87 0.71 83 1011.3
20260506123031 56 215 0.0 2.0 0.00 0.85 0.70 78 1011.1
20260506121530 56 0 0.0 4.0 0.00 0.85 0.70 73 1011.1
20260506120033 58 0 1.0 4.0 0.00 0.85 0.70 72 1011.0
20260506114534 56 215 0.0 3.0 0.00 0.85 0.70 72 1010.9
20260506113030 55 0 1.0 3.0 0.00 0.85 0.70 75 1011.0
20260506111531 56 215 1.0 4.0 0.00 0.85 0.70 75 1011.0
20260506110033 56 0 1.0 4.0 0.00 0.85 0.70 76 1011.3
20260506104533 55 215 1.0 4.0 0.00 0.85 0.70 77 1011.5
20260506103038 55 0 0.0 4.0 0.00 0.85 0.70 80 1011.6
20260506101543 56 215 0.0 6.0 0.00 0.85 0.70 82 1011.7
20260506100037 54 0 0.0 3.0 0.00 0.85 0.70 85 1011.4
20260506094533 53 0 0.0 4.0 0.00 0.85 0.70 85 1011.3
20260506093039 52 0 0.0 3.0 0.00 0.85 0.70 91 1011.0
20260506091534 51 213 1.0 6.0 0.00 0.85 0.69 88 1011.0
20260506090031 52 211 0.0 5.0 0.00 0.85 0.69 91 1010.8
20260506084529 53 211 1.0 7.0 0.00 0.96 0.69 94 1010.6
20260506083033 52 197 0.0 5.0 0.00 0.96 0.69 96 1010.2
20260506081541 50 196 2.0 7.0 0.00 0.96 0.69 97 1010.1
20260506073130 50 188 2.0 6.0 0.02 1.11 0.69 97 1009.6